Change the Weather History Date:

Thursday, September 26, 2013

  Actual Average Record
Temperature  
Mean Temperature 59 °F 54 °F  
Max Temperature 74 °F 71 °F 90 °F (1956)
Min Temperature 43 °F 38 °F 15 °F (1926)
Degree Days  
Heating Degree Days 6 11  
Month to date heating degree days 75 161  
Since 1 July heating degree days 83 198  
Cooling Degree Days 0 0  
Month to date cooling degree days 136 38  
Year to date cooling degree days 795 561  
Growing Degree Days 8 (Base 50)    
Moisture  
Dew Point 46 °F    
Average Humidity 67    
Maximum Humidity 93    
Minimum Humidity 40    
Precipitation  
Precipitation 0.00 in 0.04 in 0.75 in (1930)
Month to date precipitation 2.65 1.22  
Year to date precipitation 11.71 13.63  
Sea Level Pressure  
Sea Level Pressure 29.64 in    
Wind  
Wind Speed 12 mph (North)    
Max Wind Speed 21 mph    
Max Gust Speed 26 mph    
Visibility 10 miles    
Events      
T = Trace of Precipitation, MM = Missing Value Source: NWS Daily Summary

Daily Weather History Graph

Daily Weather History Graph

Search for Another Location

Airport or City:

Trip Planner

Search our weather history database for the weather conditions in past years. The results will help you decide how hot, cold, wet, or windy it might be!

Date:

Astronomy

Sep. 26, 2013 Rise Set
Actual Time 6:43 AM MDT 6:40 PM MDT
Civil Twilight 6:15 AM MDT 7:08 PM MDT
Nautical Twilight 5:42 AM MDT 7:41 PM MDT
Astronomical Twilight 5:09 AM MDT 8:14 PM MDT
Moon 11:36 PM MDT (9/26) 1:42 PM MDT (9/26)
Length of Visible Light 12h 53m
Length of Day
11h 57m
Waning Gibbous, 54% of the Moon is Illuminated
Sep 26
Waning Gibbous
Sep 26
Last Quarter
Oct 4
New
Oct 11
First Quarter
Oct 18
Full

Hourly Weather History & Observations

Time (MDT) Temp. Windchill Dew Point Humidity Pressure Visibility Wind Dir Wind Speed Gust Speed Precip Events Conditions
12:53 AM 55.9 °F - 46.0 °F 69% 29.44 in 10.0 mi North 17.3 mph 23.0 mph N/A   Clear
1:53 AM 54.0 °F - 46.9 °F 77% 29.48 in 10.0 mi NNW 12.7 mph - N/A   Clear
2:53 AM 53.1 °F - 46.0 °F 77% 29.51 in 10.0 mi NW 9.2 mph - N/A   Clear
3:53 AM 51.1 °F - 46.0 °F 83% 29.54 in 10.0 mi NW 9.2 mph - N/A   Clear
4:53 AM 46.9 °F - 44.1 °F 90% 29.59 in 10.0 mi WNW 6.9 mph - N/A   Clear
5:53 AM 44.1 °F 40.8 °F 42.1 °F 93% 29.62 in 10.0 mi West 5.8 mph - N/A   Clear
6:53 AM 44.1 °F 40.1 °F 42.1 °F 93% 29.66 in 10.0 mi West 6.9 mph - N/A   Clear
7:53 AM 48.9 °F - 45.0 °F 86% 29.66 in 10.0 mi WNW 8.1 mph - N/A   Clear
8:53 AM 55.9 °F - 45.0 °F 67% 29.66 in 10.0 mi NNW 11.5 mph - N/A   Clear
9:53 AM 62.1 °F - 45.0 °F 53% 29.66 in 10.0 mi North 15.0 mph - N/A   Clear
10:53 AM 64.9 °F - 44.1 °F 47% 29.66 in 10.0 mi NNW 12.7 mph - N/A   Clear
11:53 AM 66.9 °F - 44.1 °F 44% 29.67 in 10.0 mi North 12.7 mph - N/A   Clear
12:53 PM 70.0 °F - 45.0 °F 41% 29.66 in 10.0 mi NNE 10.4 mph - N/A   Clear
1:53 PM 72.0 °F - 46.0 °F 40% 29.65 in 10.0 mi NNE 12.7 mph - N/A   Clear
2:53 PM 72.0 °F - 46.9 °F 41% 29.65 in 10.0 mi NE 11.5 mph - N/A   Clear
3:53 PM 73.0 °F - 48.0 °F 41% 29.65 in 10.0 mi ENE 15.0 mph - N/A   Clear
4:53 PM 71.1 °F - 48.0 °F 44% 29.66 in 10.0 mi ENE 15.0 mph 24.2 mph N/A   Partly Cloudy
5:53 PM 68.0 °F - 48.0 °F 49% 29.69 in 10.0 mi ENE 17.3 mph - N/A   Clear
6:53 PM 64.0 °F - 48.9 °F 58% 29.70 in 10.0 mi ENE 12.7 mph - N/A   Clear
7:53 PM 60.1 °F - 48.9 °F 67% 29.70 in 10.0 mi NE 11.5 mph - N/A   Clear
8:53 PM 57.9 °F - 48.0 °F 70% 29.70 in 10.0 mi NNE 12.7 mph - N/A   Clear
9:53 PM 55.9 °F - 45.0 °F 67% 29.70 in 10.0 mi North 11.5 mph - N/A   Clear
10:53 PM 54.0 °F - 44.1 °F 69% 29.69 in 10.0 mi NNE 18.4 mph 25.3 mph N/A   Clear
11:53 PM 52.0 °F - 43.0 °F 71% 29.69 in 10.0 mi NNE 17.3 mph 24.2 mph N/A   Clear